CW6532 Weather Reports


Display with metric or nautical units.
time (UTC)temp
F
wind
direction
speed
MPH
gust
MPH
rain 1hr
in
rain 24hr
in
rain mn
in
humidity
%
barometer
mb
20210623122331 79 181 3.0 5.0 0.00 0.00 0.00 33 1014.9
20210623121321 79 181 3.0 5.0 0.00 0.00 0.00 31 1014.9
20210623120330 79 181 5.0 7.0 0.00 0.00 0.00 30 1014.9
20210623115323 79 180 5.0 7.0 0.00 0.00 0.00 28 1014.7
20210623114315 79 180 5.0 7.0 0.00 0.00 0.00 29 1014.5
20210623113335 79 178 6.0 8.0 0.00 0.00 0.00 29 1014.5
20210623112331 79 176 7.0 8.0 0.00 0.00 0.00 28 1014.5
20210623111324 79 171 7.0 8.0 0.00 0.00 0.00 28 1014.4
20210623110330 79 163 5.0 7.0 0.00 0.00 0.00 27 1014.3
20210623105321 80 163 4.0 5.0 0.00 0.00 0.00 27 1014.4
20210623104313 80 163 0.0 2.0 0.00 0.00 0.00 28 1014.4
20210623103334 80 163 2.0 5.0 0.00 0.00 0.00 28 1014.5
20210623102331 81 163 1.0 2.0 0.00 0.00 0.00 27 1014.6
20210623101326 80 163 0.0 0.0 0.00 0.00 0.00 28 1014.5
20210623100335 80 163 0.0 3.0 0.00 0.00 0.00 27 1014.5
20210623095328 80 163 2.0 3.0 0.00 0.00 0.00 27 1014.4
20210623094318 80 163 3.0 5.0 0.00 0.00 0.00 28 1014.3
20210623093335 80 163 1.0 3.0 0.00 0.00 0.00 27 1014.4
20210623092326 80 163 2.0 5.0 0.00 0.00 0.00 28 1014.6
20210623091319 81 165 4.0 5.0 0.00 0.00 0.00 27 1014.5
20210623090330 82 169 4.0 6.0 0.00 0.00 0.00 26 1014.7
20210623085336 83 169 1.0 2.0 0.00 0.00 0.00 24 1014.8
20210623084326 83 169 1.0 2.0 0.00 0.00 0.00 24 1014.9
20210623083320 84 169 2.0 5.0 0.00 0.00 0.00 24 1015.1
20210623082331 84 170 5.0 7.0 0.00 0.00 0.00 24 1015.2
20210623081318 84 148 4.0 9.0 0.00 0.00 0.00 24 1015.4
20210623080330 84 170 6.0 11.0 0.00 0.00 0.00 24 1015.4
20210623075320 84 146 7.0 11.0 0.00 0.00 0.00 24 1015.4
20210623074339 84 181 7.0 14.0 0.00 0.00 0.00 25 1015.3
20210623073333 84 186 10.0 14.0 0.00 0.00 0.00 25 1015.3
20210623072323 83 192 10.0 15.0 0.00 0.00 0.00 26 1015.2
20210623071313 83 185 10.0 13.0 0.00 0.00 0.00 26 1015.2
20210623070321 83 181 8.0 14.0 0.00 0.00 0.00 26 1015.1
20210623065315 83 161 8.0 15.0 0.00 0.00 0.00 27 1015.0
20210623064329 83 132 9.0 15.0 0.00 0.00 0.00 27 1014.8
20210623063326 83 145 4.0 7.0 0.00 0.00 0.00 28 1014.7
20210623062317 84 143 2.0 8.0 0.00 0.00 0.00 25 1014.8
20210623061325 84 240 2.0 8.0 0.00 0.00 0.00 24 1015.2
20210623060337 84 243 8.0 14.0 0.00 0.00 0.00 26 1015.0
20210623055326 85 273 4.0 8.0 0.00 0.00 0.00 26 1015.1
20210623054317 85 190 4.0 17.0 0.00 0.00 0.00 24 1015.4
20210623053335 86 164 9.0 14.0 0.00 0.00 0.00 23 1015.6
20210623052325 86 141 4.0 17.0 0.00 0.00 0.00 23 1015.2
20210623051314 86 192 9.0 11.0 0.00 0.00 0.00 22 1015.2
20210623050327 86 360 2.0 16.0 0.00 0.00 0.00 22 1014.4
20210623045321 86 304 9.0 13.0 0.00 0.00 0.00 22 1014.4
20210623044335 87 242 7.0 14.0 0.00 0.00 0.00 22 1014.7
20210623043330 87 238 9.0 19.0 0.00 0.00 0.00 22 1014.3
20210623042319 87 249 8.0 12.0 0.00 0.00 0.00 22 1014.1
20210623041325 87 271 9.0 18.0 0.00 0.00 0.00 21 1013.8
20210623040336 87 259 10.0 15.0 0.00 0.00 0.00 21 1013.5
20210623035332 88 254 10.0 16.0 0.00 0.00 0.00 21 1013.3
20210623034323 88 268 7.0 14.0 0.00 0.00 0.00 21 1013.0
20210623033317 88 272 8.0 13.0 0.00 0.00 0.00 21 1012.8
20210623032335 88 268 8.0 16.0 0.00 0.00 0.00 21 1012.7
20210623031332 88 270 6.0 13.0 0.00 0.00 0.00 21 1012.5
20210623030321 88 265 9.0 16.0 0.00 0.00 0.00 21 1012.3
20210623025339 89 261 8.0 16.0 0.00 0.00 0.00 21 1012.4
20210623024330 89 271 10.0 17.0 0.00 0.00 0.00 21 1012.3
20210623023326 89 242 8.0 17.0 0.00 0.00 0.00 21 1012.2
20210623022319 89 238 8.0 13.0 0.00 0.00 0.00 21 1012.1
20210623021327 90 247 8.0 14.0 0.00 0.00 0.00 21 1012.0
20210623020317 90 259 10.0 18.0 0.00 0.00 0.00 20 1012.1
20210623015333 90 253 9.0 12.0 0.00 0.00 0.00 21 1012.0
20210623014340 90 274 9.0 13.0 0.00 0.00 0.00 21 1012.0
20210623013335 90 261 6.0 13.0 0.00 0.00 0.00 22 1011.9
20210623012324 90 269 5.0 13.0 0.00 0.00 0.00 22 1011.8
20210623011314 90 257 9.0 19.0 0.00 0.00 0.00 22 1011.7
20210623010326 90 255 8.0 16.0 0.00 0.00 0.00 22 1011.6
20210623005320 91 327 9.0 17.0 0.00 0.00 0.00 22 1011.7
20210623004329 91 281 11.0 17.0 0.00 0.00 0.00 23 1011.7
20210623003319 91 275 11.0 20.0 0.00 0.00 0.00 23 1011.6
20210623002339 91 284 9.0 22.0 0.00 0.00 0.00 23 1011.8
20210623001329 91 263 12.0 20.0 0.00 0.00 0.00 24 1011.9
20210623000335 91 298 14.0 21.0 0.00 0.00 0.00 24 1012.0
20210622235327 91 251 11.0 16.0 0.00 0.00 0.00 24 1012.3
20210622234320 91 276 9.0 17.0 0.00 0.00 0.00 24 1012.6
20210622233336 91 308 9.0 17.0 0.00 0.00 0.00 24 1012.9
20210622232325 90 309 12.0 23.0 0.00 0.00 0.00 25 1012.8
20210622231315 91 311 14.0 21.0 0.00 0.00 0.00 25 1012.9
20210622230325 91 309 10.0 17.0 0.00 0.00 0.00 23 1013.3
20210622225316 92 319 9.0 18.0 0.00 0.00 0.00 23 1013.7
20210622224333 92 279 11.0 18.0 0.00 0.00 0.00 22 1013.8
20210622223326 92 256 9.0 17.0 0.00 0.00 0.00 22 1013.9
20210622222339 92 282 7.0 18.0 0.00 0.00 0.00 22 1014.0
20210622221326 93 261 11.0 15.0 0.00 0.00 0.00 22 1014.2
20210622220333 92 293 10.0 19.0 0.00 0.00 0.00 22 1014.1
20210622215321 93 314 12.0 20.0 0.00 0.00 0.00 22 1013.9
20210622214328 93 355 9.0 14.0 0.00 0.00 0.00 22 1014.0
20210622213321 93 303 10.0 16.0 0.00 0.00 0.00 23 1014.3
20210622212314 93 265 10.0 16.0 0.00 0.00 0.00 23 1014.8
20210622211332 93 271 12.0 17.0 0.00 0.00 0.00 23 1014.9
20210622210324 93 252 9.0 18.0 0.00 0.00 0.00 22 1015.1
20210622205319 94 265 7.0 16.0 0.00 0.00 0.00 21 1015.1
20210622204337 94 285 9.0 17.0 0.00 0.00 0.00 20 1015.1
20210622203340 95 267 13.0 18.0 0.00 0.00 0.00 20 1015.1
20210622202328 95 251 13.0 19.0 0.00 0.00 0.00 20 1014.9
20210622201322 94 263 7.0 19.0 0.00 0.00 0.00 18 1014.9
20210622200335 95 275 10.0 15.0 0.00 0.00 0.00 17 1014.8
20210622195330 95 269 7.0 16.0 0.00 0.00 0.00 17 1014.9
20210622194313 95 261 8.0 19.0 0.00 0.00 0.00 18 1014.7
20210622193333 96 290 10.0 16.0 0.00 0.00 0.00 18 1014.5
20210622192326 96 252 10.0 16.0 0.00 0.00 0.00 17 1014.6
20210622191317 95 338 9.0 18.0 0.00 0.00 0.00 16 1014.5
20210622190327 95 330 12.0 16.0 0.00 0.00 0.00 17 1014.6
20210622185317 95 320 9.0 18.0 0.00 0.00 0.00 17 1014.6
20210622184331 95 275 7.0 14.0 0.00 0.00 0.00 18 1014.8
20210622183321 94 293 6.0 15.0 0.00 0.00 0.00 19 1015.0
20210622182340 93 271 7.0 14.0 0.00 0.00 0.00 20 1015.0
20210622181332 93 294 6.0 15.0 0.00 0.00 0.00 20 1015.0
20210622180322 93 245 9.0 14.0 0.00 0.00 0.00 19 1015.0
20210622175338 93 252 9.0 14.0 0.00 0.00 0.00 19 1015.0
20210622174330 93 277 8.0 12.0 0.00 0.00 0.00 19 1015.1
20210622173324 93 262 7.0 13.0 0.00 0.00 0.00 19 1014.9
20210622172336 93 281 9.0 12.0 0.00 0.00 0.00 18 1015.0
20210622171328 93 245 10.0 14.0 0.00 0.00 0.00 17 1015.0
20210622170321 93 221 6.0 15.0 0.00 0.00 0.00 17 1015.0
20210622165340 93 209 6.0 13.0 0.00 0.00 0.00 18 1015.1
20210622164327 93 269 6.0 13.0 0.00 0.00 0.00 19 1015.0
20210622163320 92 235 10.0 15.0 0.00 0.00 0.00 19 1015.0
20210622162339 91 203 5.0 11.0 0.00 0.00 0.00 20 1015.0
20210622161330 91 240 3.0 12.0 0.00 0.00 0.00 20 1015.2
20210622160317 90 237 5.0 14.0 0.00 0.00 0.00 21 1015.2
20210622155333 89 244 6.0 11.0 0.00 0.00 0.00 22 1015.1
20210622154320 89 246 8.0 12.0 0.00 0.00 0.00 21 1015.1
20210622153314 89 225 6.0 10.0 0.00 0.00 0.00 21 1015.1
20210622152334 88 223 8.0 12.0 0.00 0.00 0.00 21 1015.2
20210622151321 88 223 7.0 9.0 0.00 0.00 0.00 21 1015.2
20210622150328 88 210 6.0 9.0 0.00 0.00 0.00 22 1015.0
20210622145316 88 214 5.0 8.0 0.00 0.00 0.00 21 1015.1
20210622144332 87 153 3.0 6.0 0.00 0.00 0.00 19 1015.0
20210622143321 87 154 4.0 7.0 0.00 0.00 0.00 19 1014.9
20210622142338 87 183 5.0 9.0 0.00 0.00 0.00 21 1014.9
20210622141328 86 188 6.0 9.0 0.00 0.00 0.00 23 1014.8
20210622140336 85 200 5.0 8.0 0.00 0.00 0.00 23 1014.9
20210622135325 85 181 5.0 8.0 0.00 0.00 0.00 22 1014.9
20210622134316 85 182 7.0 10.0 0.00 0.00 0.00 22 1014.7
20210622133337 84 185 3.0 5.0 0.00 0.00 0.00 19 1014.5
20210622132327 83 186 4.0 7.0 0.00 0.00 0.00 19 1014.4
20210622131319 82 188 3.0 6.0 0.00 0.00 0.00 19 1014.4
20210622130327 82 188 3.0 5.0 0.00 0.00 0.00 20 1014.4
20210622125320 81 188 1.0 3.0 0.00 0.00 0.00 23 1014.3
20210622124333 81 188 1.0 3.0 0.00 0.00 0.00 23 1014.3
20210622123322 82 188 0.0 3.0 0.00 0.00 0.00 22 1014.0